TimeCST,TemperatureF,Dew PointF,Humidity,Sea Level PressureIn,VisibilityMPH,Wind Direction,Wind SpeedMPH,Gust SpeedMPH,PrecipitationIn,Events,Conditions,WindDirDegrees,DateUTC
12:54 AM,39.0,33.1,79,30.12,6.0,South,10.4,-,N/A,,Haze,170,2012-11-21 06:54:00
1:54 AM,39.9,34.0,79,30.11,6.0,South,9.2,-,N/A,,Haze,180,2012-11-21 07:54:00
2:54 AM,39.0,33.1,79,30.11,6.0,South,10.4,-,N/A,,Haze,190,2012-11-21 08:54:00
3:54 AM,42.1,34.0,73,30.08,7.0,South,13.8,-,N/A,,Clear,180,2012-11-21 09:54:00
4:54 AM,42.1,34.0,73,30.07,7.0,South,16.1,-,N/A,,Clear,190,2012-11-21 10:54:00
5:54 AM,43.0,35.1,74,30.06,7.0,South,18.4,-,N/A,,Clear,190,2012-11-21 11:54:00
6:54 AM,43.0,35.1,74,30.05,7.0,South,18.4,-,N/A,,Clear,190,2012-11-21 12:54:00
7:54 AM,46.0,35.1,66,30.04,7.0,South,18.4,-,N/A,,Clear,190,2012-11-21 13:54:00
8:54 AM,51.1,37.9,61,30.04,9.0,SSW,18.4,-,N/A,,Clear,200,2012-11-21 14:54:00
9:54 AM,55.0,37.9,53,30.03,10.0,SSW,21.9,27.6,N/A,,Clear,210,2012-11-21 15:54:00
10:54 AM,59.0,39.0,48,30.01,10.0,SW,21.9,31.1,N/A,,Clear,220,2012-11-21 16:54:00
11:54 AM,62.1,39.9,44,29.99,10.0,SSW,16.1,-,N/A,,Clear,210,2012-11-21 17:54:00
12:54 PM,66.0,39.9,38,29.96,10.0,SSW,19.6,26.5,N/A,,Clear,210,2012-11-21 18:54:00
1:54 PM,69.1,37.9,32,29.93,10.0,SSW,24.2,32.2,N/A,,Clear,210,2012-11-21 19:54:00
2:54 PM,69.1,37.9,32,29.92,10.0,SSW,20.7,28.8,N/A,,Clear,210,2012-11-21 20:54:00
3:54 PM,66.9,39.9,37,29.92,10.0,South,10.4,-,0.01,,Clear,190,2012-11-21 21:54:00
4:54 PM,61.0,39.9,46,29.91,10.0,South,12.7,-,N/A,,Clear,190,2012-11-21 22:54:00
5:54 PM,57.9,42.1,56,29.90,10.0,South,11.5,-,N/A,,Clear,180,2012-11-21 23:54:00
6:54 PM,57.9,43.0,58,29.89,10.0,South,17.3,-,N/A,,Clear,180,2012-11-22 00:54:00
7:54 PM,55.9,42.1,60,29.89,10.0,South,17.3,-,N/A,,Clear,190,2012-11-22 01:54:00
8:54 PM,57.0,39.0,51,29.87,10.0,South,21.9,-,N/A,,Clear,190,2012-11-22 02:54:00
9:54 PM,55.9,39.0,53,29.85,10.0,South,23.0,32.2,N/A,,Clear,180,2012-11-22 03:54:00
10:54 PM,55.0,37.9,53,29.83,10.0,South,25.3,32.2,N/A,,Clear,190,2012-11-22 04:54:00
11:54 PM,55.0,37.9,53,29.82,10.0,South,19.6,29.9,N/A,,Clear,180,2012-11-22 05:54:00